Location: Dürabuch
(48.2640°N, 11.2185°E)
Time: 02:55:14
(UTC+00:00)

Meteor 2-5 Rocket - Pass Details

Date: 23 May 2024
Orbit: 832 x 911 km, 81.2° (Epoch: 19 June)

Event Time Altitude Azimuth Distance (km) Brightness Sun altitude
Exits shadow 02:43:02 - 215° (SW) 2,847 5.8 -6.5°
Reaches altitude 10° 02:43:47 10° 218° (SW) 2,579 5.6 -6.4°
Maximum altitude 02:49:23 44° 289° (WNW) 1,250 4.4 -5.7°
Drops below altitude 10° 02:55:04 10° 1° (N) 2,611 6.9 -5.0°
Sets 02:57:41 0° 8° (N) 3,555 7.7 -4.6°
